This is the latest recevied weather packets stored in our database for station/object N7WSS. If no packets are shown the sender has not sent any weather packets the latest 10 day(s).
| Time | Temp. | Humidity | Pressure | Rain* | Wind** | Luminosity | Snow |
|---|---|---|---|---|---|---|---|
| 1788113209 | 33.33° C | 38% | 1015.6 hPa | 0 mm | - | - | - |
| 1788112904 | 33.33° C | 38% | 1015.7 hPa | 0 mm | - | - | - |
| 1788112603 | 32.78° C | 39% | 1015.9 hPa | 0 mm | - | - | - |
| 1788112298 | 33.33° C | 38% | 1016 hPa | 0 mm | - | - | - |
| 1788111994 | 33.33° C | 39% | 1015.9 hPa | 0 mm | - | - | - |
| 1788111689 | 32.78° C | 40% | 1016 hPa | 0 mm | - | - | - |
| 1788111384 | 32.78° C | 40% | 1015.7 hPa | 0 mm | - | - | - |
| 1788111079 | 32.78° C | 40% | 1016 hPa | 0 mm | - | - | - |
| 1788110776 | 32.22° C | 43% | 1016.1 hPa | 0 mm | - | - | - |
| 1788110472 | 31.67° C | 43% | 1015.9 hPa | 0 mm | - | - | - |
| 1788110167 | 31.11° C | 43% | 1015.9 hPa | 0 mm | - | - | - |
| 1788109862 | 31.11° C | 44% | 1016.1 hPa | 0 mm | - | - | - |
| 1788109562 | 30.56° C | 46% | 1016 hPa | 0 mm | - | - | - |
| 1788109261 | 30.56° C | 47% | 1015.9 hPa | 0 mm | - | - | - |
| 1788108956 | 29.44° C | 48% | 1016 hPa | 0 mm | - | - | - |
| 1788108652 | 28.89° C | 48% | 1016 hPa | 0 mm | - | - | - |
| 1788108348 | 28.89° C | 50% | 1015.6 hPa | 0 mm | - | - | - |
| 1788108044 | 28.89° C | 50% | 1016.1 hPa | 0 mm | - | - | - |
| 1788107741 | 28.33° C | 51% | 1015.9 hPa | 0 mm | - | - | - |
| 1788107440 | 28.33° C | 50% | 1016.1 hPa | 0 mm | - | - | - |
| 1788107136 | 28.33° C | 50% | 1016.2 hPa | 0 mm | - | - | - |
| 1788106837 | 28.33° C | 51% | 1016 hPa | 0 mm | - | - | - |
| 1788106536 | 28.33° C | 50% | 1016.2 hPa | 0 mm | - | - | - |
| 1788106231 | 28.33° C | 51% | 1016.2 hPa | 0 mm | - | - | - |
| 1788105928 | 28.89° C | 51% | 1016.1 hPa | 0 mm | - | - | - |
* Rain latest hour (hover to see other rain measurements)
** Current wind speed in m/s (hover to see current wind gust speed)